Time,TemperatureF,DewpointF,PressureIn,WindDirection,WindDirectionDegrees,WindSpeedMPH,WindSpeedGustMPH,Humidity,HourlyPrecipIn,Conditions,Clouds,dailyrainin,SolarRadiationWatts/m^2,SoftwareType,DateUTC
2013-07-05 00:05:00,72.9,72.0,30.15,SSE,157,0.0,0.0,97,0.00,,,0.00,0,weatherlink.com 1.10,2013-07-05 04:05:00,
2013-07-05 00:19:00,72.9,72.0,30.15,SSE,157,0.0,0.0,97,0.00,,,0.00,0,weatherlink.com 1.10,2013-07-05 04:19:00,
2013-07-05 00:35:00,72.6,72.0,30.15,SSE,154,0.0,1.0,97,0.00,,,0.00,0,weatherlink.com 1.10,2013-07-05 04:35:00,
2013-07-05 00:50:00,72.5,72.0,30.15,ESE,112,1.0,2.0,97,0.00,,,0.00,0,weatherlink.com 1.10,2013-07-05 04:50:00,
2013-07-05 01:05:00,72.6,72.0,30.15,ESE,111,0.0,2.0,97,0.00,,,0.00,0,weatherlink.com 1.10,2013-07-05 05:05:00,
2013-07-05 01:20:00,72.7,72.0,30.14,ESE,111,0.0,1.0,97,0.00,,,0.00,0,weatherlink.com 1.10,2013-07-05 05:20:00,
2013-07-05 01:35:00,72.7,72.0,30.14,ESE,110,0.0,2.0,97,0.00,,,0.00,0,weatherlink.com 1.10,2013-07-05 05:35:00,
2013-07-05 01:50:00,72.7,72.0,30.14,ESE,109,0.0,2.0,97,0.00,,,0.00,0,weatherlink.com 1.10,2013-07-05 05:50:00,
2013-07-05 02:05:00,72.8,72.0,30.14,ESE,110,0.0,1.0,98,0.00,,,0.00,0,weatherlink.com 1.10,2013-07-05 06:05:00,
2013-07-05 02:20:00,72.8,72.0,30.12,East,86,0.0,1.0,98,0.00,,,0.00,0,weatherlink.com 1.10,2013-07-05 06:20:00,
2013-07-05 02:35:00,72.7,72.0,30.12,East,86,0.0,1.0,98,0.00,,,0.00,0,weatherlink.com 1.10,2013-07-05 06:35:00,
2013-07-05 02:50:00,72.7,72.0,30.12,East,86,0.0,1.0,98,0.00,,,0.00,0,weatherlink.com 1.10,2013-07-05 06:50:00,
2013-07-05 03:05:00,72.5,72.0,30.12,East,86,0.0,0.0,98,0.00,,,0.00,0,weatherlink.com 1.10,2013-07-05 07:05:00,
2013-07-05 03:20:00,72.3,72.0,30.11,East,86,0.0,0.0,98,0.00,,,0.00,0,weatherlink.com 1.10,2013-07-05 07:20:00,
2013-07-05 03:36:00,72.1,72.0,30.11,East,86,0.0,0.0,98,0.00,,,0.00,0,weatherlink.com 1.10,2013-07-05 07:36:00,
2013-07-05 03:51:00,72.1,72.0,30.10,East,87,0.0,1.0,98,0.00,,,0.00,0,weatherlink.com 1.10,2013-07-05 07:51:00,
2013-07-05 04:06:00,72.0,71.0,30.11,East,87,0.0,1.0,98,0.00,,,0.00,0,weatherlink.com 1.10,2013-07-05 08:06:00,
2013-07-05 04:21:00,71.8,71.0,30.11,East,87,0.0,1.0,98,0.00,,,0.00,0,weatherlink.com 1.10,2013-07-05 08:21:00,
2013-07-05 04:36:00,71.7,71.0,30.11,East,87,0.0,1.0,98,0.00,,,0.00,0,weatherlink.com 1.10,2013-07-05 08:36:00,
2013-07-05 04:51:00,71.7,71.0,30.11,East,87,0.0,1.0,98,0.00,,,0.00,0,weatherlink.com 1.10,2013-07-05 08:51:00,
2013-07-05 05:06:00,71.6,71.0,30.11,East,81,1.0,2.0,98,0.00,,,0.00,0,weatherlink.com 1.10,2013-07-05 09:06:00,
2013-07-05 05:21:00,71.6,71.0,30.11,East,80,0.0,2.0,98,0.00,,,0.00,0,weatherlink.com 1.10,2013-07-05 09:21:00,
2013-07-05 05:36:00,71.5,71.0,30.11,East,80,1.0,2.0,98,0.00,,,0.00,0,weatherlink.com 1.10,2013-07-05 09:36:00,
2013-07-05 06:06:00,71.6,71.0,30.11,East,79,0.0,1.0,98,0.00,,,0.00,0,weatherlink.com 1.10,2013-07-05 10:06:00,
2013-07-05 06:21:00,71.6,71.0,30.12,East,79,0.0,0.0,98,0.00,,,0.00,0,weatherlink.com 1.10,2013-07-05 10:21:00,
2013-07-05 06:36:00,71.4,71.0,30.12,East,79,0.0,0.0,98,0.00,,,0.00,5,weatherlink.com 1.10,2013-07-05 10:36:00,
2013-07-05 06:51:00,71.5,71.0,30.12,East,79,0.0,1.0,98,0.00,,,0.00,9,weatherlink.com 1.10,2013-07-05 10:51:00,
2013-07-05 07:37:00,73.0,72.0,30.13,East,99,0.0,4.0,98,0.00,,,0.00,84,weatherlink.com 1.10,2013-07-05 11:37:00,
2013-07-05 07:52:00,74.0,73.0,30.13,East,84,1.0,4.0,98,0.00,,,0.00,179,weatherlink.com 1.10,2013-07-05 11:52:00,
2013-07-05 08:07:00,75.2,75.0,30.14,ESE,103,0.0,6.0,98,0.00,,,0.00,230,weatherlink.com 1.10,2013-07-05 12:07:00,
2013-07-05 08:22:00,76.3,76.0,30.14,ESE,110,1.0,5.0,98,0.00,,,0.00,274,weatherlink.com 1.10,2013-07-05 12:22:00,
2013-07-05 08:37:00,77.5,76.0,30.14,SE,130,2.0,5.0,95,0.00,,,0.00,329,weatherlink.com 1.10,2013-07-05 12:37:00,
2013-07-05 08:52:00,78.9,76.0,30.14,ESE,110,3.0,6.0,91,0.00,,,0.00,401,weatherlink.com 1.10,2013-07-05 12:52:00,
2013-07-05 09:07:00,79.9,77.0,30.15,ESE,119,1.0,5.0,90,0.00,,,0.00,454,weatherlink.com 1.10,2013-07-05 13:07:00,
2013-07-05 09:22:00,81.0,77.0,30.15,ESE,117,2.0,6.0,88,0.00,,,0.00,508,weatherlink.com 1.10,2013-07-05 13:22:00,
2013-07-05 09:37:00,81.6,77.0,30.14,ESE,117,4.0,6.0,86,0.00,,,0.00,541,weatherlink.com 1.10,2013-07-05 13:37:00,
2013-07-05 09:54:00,83.0,78.0,30.14,ESE,122,3.0,5.0,84,0.00,,,0.00,719,weatherlink.com 1.10,2013-07-05 13:54:00,
2013-07-05 10:24:00,83.0,77.0,30.14,SE,132,3.0,7.0,82,0.00,,,0.00,914,weatherlink.com 1.10,2013-07-05 14:24:00,
2013-07-05 10:38:00,83.1,77.0,30.14,South,184,0.0,7.0,81,0.00,,,0.00,244,weatherlink.com 1.10,2013-07-05 14:38:00,
2013-07-05 11:08:00,85.4,77.0,30.14,South,186,1.0,6.0,77,0.00,,,0.00,243,weatherlink.com 1.10,2013-07-05 15:08:00,
2013-07-05 11:24:00,85.0,77.0,30.15,SSE,164,4.0,8.0,77,0.00,,,0.00,403,weatherlink.com 1.10,2013-07-05 15:24:00,
2013-07-05 11:38:00,85.0,77.0,30.14,ESE,113,3.0,6.0,76,0.00,,,0.00,311,weatherlink.com 1.10,2013-07-05 15:38:00,
2013-07-05 11:54:00,85.9,76.0,30.14,East,91,3.0,9.0,73,0.00,,,0.00,209,weatherlink.com 1.10,2013-07-05 15:54:00,
2013-07-05 12:08:00,83.8,79.0,30.14,SSE,152,0.0,4.0,84,0.02,,,0.02,176,weatherlink.com 1.10,2013-07-05 16:08:00,
2013-07-05 12:24:00,82.3,77.0,30.13,East,80,1.0,8.0,84,0.03,,,0.03,207,weatherlink.com 1.10,2013-07-05 16:24:00,
2013-07-05 12:38:00,80.6,77.0,30.13,WNW,300,0.0,3.0,89,0.09,,,0.09,70,weatherlink.com 1.10,2013-07-05 16:38:00,
2013-07-05 12:54:00,77.1,74.0,30.14,SE,138,12.0,14.0,89,0.24,,,0.24,23,weatherlink.com 1.10,2013-07-05 16:54:00,
2013-07-05 13:09:00,74.2,72.0,30.13,ENE,76,0.0,5.0,93,0.41,,,0.43,91,weatherlink.com 1.10,2013-07-05 17:09:00,
2013-07-05 13:24:00,74.3,73.0,30.14,ENE,77,0.0,1.0,95,0.40,,,0.43,105,weatherlink.com 1.10,2013-07-05 17:24:00,
2013-07-05 13:39:00,74.8,74.0,30.14,East,99,3.0,6.0,96,0.34,,,0.43,74,weatherlink.com 1.10,2013-07-05 17:39:00,
2013-07-05 13:54:00,74.7,73.0,30.14,SE,133,1.0,7.0,94,0.18,,,0.44,84,weatherlink.com 1.10,2013-07-05 17:54:00,
2013-07-05 14:09:00,74.9,73.0,30.14,SE,146,2.0,9.0,95,0.01,,,0.44,95,weatherlink.com 1.10,2013-07-05 18:09:00,
2013-07-05 14:24:00,75.1,74.0,30.13,SSE,154,2.0,4.0,95,0.01,,,0.44,91,weatherlink.com 1.10,2013-07-05 18:24:00,
2013-07-05 14:39:00,75.4,74.0,30.12,SSE,155,1.0,2.0,96,0.01,,,0.44,185,weatherlink.com 1.10,2013-07-05 18:39:00,
2013-07-05 14:54:00,76.2,75.0,30.11,SSE,148,3.0,3.0,97,0.00,,,0.44,283,weatherlink.com 1.10,2013-07-05 18:54:00,
2013-07-05 15:09:00,77.4,76.0,30.10,ESE,114,0.0,2.0,96,0.00,,,0.44,350,weatherlink.com 1.10,2013-07-05 19:09:00,
2013-07-05 15:24:00,78.5,77.0,30.10,SSE,151,1.0,3.0,95,0.00,,,0.44,573,weatherlink.com 1.10,2013-07-05 19:24:00,
2013-07-05 15:39:00,80.2,77.0,30.09,ESE,119,0.0,8.0,91,0.00,,,0.44,605,weatherlink.com 1.10,2013-07-05 19:39:00,
2013-07-05 15:54:00,81.4,78.0,30.09,ENE,67,4.0,6.0,89,0.00,,,0.44,559,weatherlink.com 1.10,2013-07-05 19:54:00,
2013-07-05 16:09:00,83.0,79.0,30.08,NNE,31,4.0,6.0,86,0.00,,,0.44,621,weatherlink.com 1.10,2013-07-05 20:09:00,
2013-07-05 16:24:00,84.5,79.0,30.08,East,97,2.0,9.0,82,0.00,,,0.44,582,weatherlink.com 1.10,2013-07-05 20:24:00,
2013-07-05 16:39:00,85.3,76.0,30.07,SE,127,1.0,10.0,74,0.00,,,0.44,533,weatherlink.com 1.10,2013-07-05 20:39:00,
2013-07-05 16:55:00,86.1,76.0,30.08,ESE,114,4.0,12.0,71,0.00,,,0.44,717,weatherlink.com 1.10,2013-07-05 20:55:00,
2013-07-05 17:09:00,86.4,74.0,30.09,South,169,3.0,12.0,67,0.00,,,0.44,181,weatherlink.com 1.10,2013-07-05 21:09:00,
2013-07-05 17:25:00,79.7,74.0,30.08,ESE,105,0.0,4.0,83,0.01,,,0.45,167,weatherlink.com 1.10,2013-07-05 21:25:00,
2013-07-05 17:40:00,79.0,75.0,30.08,ENE,59,0.0,2.0,86,0.01,,,0.45,139,weatherlink.com 1.10,2013-07-05 21:40:00,
2013-07-05 17:55:00,80.4,76.0,30.08,ENE,61,0.0,0.0,87,0.01,,,0.45,353,weatherlink.com 1.10,2013-07-05 21:55:00,
2013-07-05 18:10:00,82.4,76.0,30.07,ENE,78,2.0,5.0,82,0.01,,,0.45,211,weatherlink.com 1.10,2013-07-05 22:10:00,
2013-07-05 18:25:00,82.9,77.0,30.07,East,88,0.0,2.0,81,0.00,,,0.45,116,weatherlink.com 1.10,2013-07-05 22:25:00,
2013-07-05 18:40:00,82.8,76.0,30.08,East,90,0.0,5.0,80,0.00,,,0.45,111,weatherlink.com 1.10,2013-07-05 22:40:00,
2013-07-05 18:55:00,82.7,76.0,30.08,East,83,0.0,2.0,80,0.00,,,0.45,102,weatherlink.com 1.10,2013-07-05 22:55:00,
2013-07-05 19:10:00,82.3,76.0,30.09,East,79,1.0,4.0,80,0.00,,,0.45,54,weatherlink.com 1.10,2013-07-05 23:10:00,
2013-07-05 19:25:00,81.8,75.0,30.09,SE,132,1.0,5.0,80,0.00,,,0.45,60,weatherlink.com 1.10,2013-07-05 23:25:00,
2013-07-05 19:40:00,81.2,75.0,30.09,SE,146,1.0,3.0,81,0.00,,,0.45,21,weatherlink.com 1.10,2013-07-05 23:40:00,
2013-07-05 19:55:00,79.4,75.0,30.09,ESE,122,0.0,2.0,86,0.01,,,0.46,26,weatherlink.com 1.10,2013-07-05 23:55:00,
2013-07-05 20:10:00,78.2,75.0,30.09,ESE,122,0.0,1.0,90,0.01,,,0.46,18,weatherlink.com 1.10,2013-07-06 00:10:00,
2013-07-05 20:25:00,77.5,75.0,30.10,East,93,0.0,3.0,91,0.01,,,0.46,0,weatherlink.com 1.10,2013-07-06 00:25:00,
2013-07-05 20:40:00,77.5,75.0,30.11,East,88,0.0,1.0,92,0.02,,,0.47,0,weatherlink.com 1.10,2013-07-06 00:40:00,
2013-07-05 20:55:00,77.2,75.0,30.11,East,88,0.0,1.0,92,0.01,,,0.47,0,weatherlink.com 1.10,2013-07-06 00:55:00,
2013-07-05 21:10:00,76.8,74.0,30.11,East,94,0.0,1.0,92,0.01,,,0.47,0,weatherlink.com 1.10,2013-07-06 01:10:00,
2013-07-05 21:26:00,76.5,74.0,30.11,East,94,0.0,1.0,93,0.01,,,0.47,0,weatherlink.com 1.10,2013-07-06 01:26:00,
2013-07-05 21:40:00,76.4,75.0,30.12,East,94,0.0,0.0,94,0.00,,,0.47,0,weatherlink.com 1.10,2013-07-06 01:40:00,
2013-07-05 21:56:00,76.3,75.0,30.12,East,94,0.0,1.0,94,0.00,,,0.47,0,weatherlink.com 1.10,2013-07-06 01:56:00,
2013-07-05 22:11:00,76.0,74.0,30.12,East,94,0.0,0.0,94,0.00,,,0.47,0,weatherlink.com 1.10,2013-07-06 02:11:00,
2013-07-05 22:26:00,75.7,74.0,30.12,East,94,0.0,0.0,95,0.00,,,0.47,0,weatherlink.com 1.10,2013-07-06 02:26:00,
2013-07-05 22:41:00,75.3,74.0,30.12,East,88,0.0,1.0,95,0.00,,,0.47,0,weatherlink.com 1.10,2013-07-06 02:41:00,
2013-07-05 22:56:00,75.4,74.0,30.13,SE,125,0.0,1.0,94,0.00,,,0.47,0,weatherlink.com 1.10,2013-07-06 02:56:00,
2013-07-05 23:11:00,75.5,74.0,30.13,SE,126,0.0,2.0,94,0.00,,,0.47,0,weatherlink.com 1.10,2013-07-06 03:11:00,
2013-07-05 23:26:00,75.4,74.0,30.13,SSE,156,2.0,2.0,94,0.00,,,0.47,0,weatherlink.com 1.10,2013-07-06 03:26:00,
2013-07-05 23:41:00,75.4,74.0,30.13,SE,138,0.0,2.0,94,0.00,,,0.47,0,weatherlink.com 1.10,2013-07-06 03:41:00,
2013-07-05 23:56:00,75.3,74.0,30.13,South,180,0.0,2.0,94,0.00,,,0.47,0,weatherlink.com 1.10,2013-07-06 03:56:00,